Location: Cucq
(50.4773°N, 1.6202°E)
Time: 17:49:48
(UTC+00:00)

Cosmos 2112 Rocket - Pass Details

Date: 07 August 2020
Orbit: 757 x 786 km, 74.0° (Epoch: 24 September)

Event Time Altitude Azimuth Distance (km) Brightness Sun altitude
Rises 01:51:35 0° 337° (NNW) 3,252 7.8 -18.8°
Reaches altitude 10° 01:54:01 10° 341° (NNW) 2,316 7.0 -18.6°
Maximum altitude 01:59:14 62° 62° (ENE) 859 4.4 -18.2°
Drops below altitude 10° 02:04:22 10° 143° (SE) 2,286 6.2 -17.8°
Enters shadow 02:06:29 - 147° (SSE) 3,104 6.9 -17.6°
